Stations météo

réclame
Mon MeteoGroup
Vilhelmina, Suède (2245): Température de l'air & dewpoint: 10.07.2020 16:00:00 - 16.07.2020 16:00:00 (CEST)Vilhelmina, Suède (2245): Vitesse du vent & gusts: 10.07.2020 16:00:00 - 16.07.2020 16:00:00 (CEST)Vilhelmina, Suède (2245): Direction du vent: 10.07.2020 16:00:00 - 16.07.2020 16:00:00 (CEST)Vilhelmina, Suède (2245): reduced air pressure: 10.07.2020 16:00:00 - 16.07.2020 16:00:00 (CEST)Vilhelmina, Suède (2245): visibility: 10.07.2020 16:00:00 - 16.07.2020 16:00:00 (CEST)Vilhelmina, Suède (2245): Quantités de précipitations: 10.07.2020 16:00:00 - 16.07.2020 16:00:00 (CEST)
Date & Time tt [°C] td [°C] ff [km/h] ff [knt] fx [km/h] fx [knt] dd ppp [hPa] vv [km] rr [mm]
16.07.2020 16:00:00 19,5 10,5 15 8 25 13 S 1012,5 10 0,0
16.07.2020 15:00:00 18,9 11,0 15 8 24 13 S 1012,7 10 0,0
16.07.2020 14:00:00 19,1 11,2 15 8 23 13 S 1012,8 10 0,0
16.07.2020 13:00:00 17,9 11,5 11 6 19 10 S 1013,1 10 0,0
16.07.2020 12:00:00 16,5 11,4 8 4 18 10 SSW 1013,7 10 0,0
16.07.2020 11:00:00 16,1 12,3 11 6 19 11 SSW 1014,0 10 0,0
16.07.2020 10:00:00 15,6 12,2 11 6 18 10 S 1013,9 10 0,0
16.07.2020 09:00:00 14,5 12,2 4 2 6 3 - 1013,9 10 0,0
16.07.2020 08:00:00 13,5 11,6 4 2 10 6 - 1014,1 10 0,0
16.07.2020 07:00:00 13,4 11,6 5 3 9 5 E 1014,1 10 0,0
16.07.2020 06:00:00 11,6 10,8 0 0 3 2 N 1014,5 10 0,0
16.07.2020 05:00:00 9,7 9,4 0 0 3 2 N 1014,8 10 0,0
16.07.2020 04:00:00 8,1 7,7 4 2 5 3 ESE 1014,8 10 0,0
16.07.2020 03:00:00 7,1 6,7 0 0 4 2 N 1015,1 10 0,0
16.07.2020 02:00:00 6,9 6,3 0 0 3 2 N 1015,0 10 0,0
16.07.2020 01:00:00 6,6 5,7 0 0 2 1 N 1015,0 10 0,0
16.07.2020 00:00:00 7,7 6,6 0 0 5 3 N 1014,7 10 0,0
15.07.2020 23:00:00 10,0 8,8 4 2 7 4 E 1014,0 10 0,0
15.07.2020 22:00:00 14,1 9,1 5 3 9 5 SE 1013,4 10 0,0
15.07.2020 21:00:00 14,7 9,1 9 5 11 6 SE 1013,3 10 0,0
15.07.2020 20:00:00 15,2 8,2 11 6 15 8 SE 1013,0 10 0,0
15.07.2020 19:00:00 15,7 8,2 11 6 18 10 SSE 1012,9 10 0,0
15.07.2020 18:00:00 16,2 7,7 11 6 19 11 S 1013,0 10 0,0
15.07.2020 17:00:00 16,5 6,4 11 6 20 11 SE 1013,0 10 0,0
15.07.2020 16:00:00 16,2 4,9 15 8 25 13 S 1013,2 10 0,0
15.07.2020 15:00:00 16,4 5,4 15 8 24 13 SSE 1013,2 10 0,0
15.07.2020 14:00:00 16,0 5,3 15 8 24 13 S 1013,2 10 0,0
15.07.2020 13:00:00 16,4 4,1 16 9 25 14 SSE 1012,9 10 0,0
15.07.2020 12:00:00 17,0 4,7 11 6 25 13 E 1012,8 10 0,0
15.07.2020 11:00:00 15,4 6,0 9 5 23 12 SSE 1013,2 10 0,0
15.07.2020 10:00:00 15,6 6,1 5 3 17 9 S 1013,1 10 0,0
15.07.2020 09:00:00 13,8 6,6 5 3 15 8 SSE 1013,3 10 0,0
15.07.2020 08:00:00 12,5 8,2 9 5 12 6 ESE 1013,4 10 0,0
15.07.2020 07:00:00 11,4 8,8 11 6 14 8 ESE 1013,6 10 0,0
15.07.2020 06:00:00 9,9 8,2 11 6 15 8 E 1013,7 10 0,0
15.07.2020 05:00:00 8,5 7,5 8 4 10 5 E 1013,7 10 0,0
15.07.2020 04:00:00 5,4 4,8 5 3 6 3 E 1014,1 10 0,0
15.07.2020 03:00:00 6,3 5,9 4 2 6 3 E 1013,9 10 0,0
15.07.2020 02:00:00 6,7 6,4 4 2 5 3 E 1013,9 10 0,0
15.07.2020 01:00:00 6,5 5,9 4 2 7 4 E 1013,9 10 0,0
15.07.2020 00:00:00 7,6 7,0 2 1 7 4 - 1013,5 10 0,0
14.07.2020 23:00:00 7,9 7,0 0 0 3 2 N 1013,2 10 0,0
14.07.2020 22:00:00 10,5 9,3 4 2 6 3 E 1012,7 10 0,0
14.07.2020 21:00:00 12,9 10,3 5 3 10 5 ESE 1012,1 10 0,0
14.07.2020 20:00:00 14,8 8,1 9 5 18 10 SE 1011,5 10 0,0
14.07.2020 19:00:00 15,5 8,0 11 6 16 8 E 1011,4 10 0,0
14.07.2020 18:00:00 15,6 8,3 9 5 14 7 ESE 1011,5 10 0,0
14.07.2020 17:00:00 15,2 8,1 11 6 17 9 ESE 1011,6 10 0,0
14.07.2020 16:00:00 14,7 8,6 4 2 13 7 - 1011,7 10 0,1
14.07.2020 15:00:00 14,3 8,7 8 4 15 8 S 1012,1 10 0,0
14.07.2020 14:00:00 14,2 9,0 9 5 14 8 ESE 1011,9 10 0,0
14.07.2020 13:00:00 13,1 9,4 9 5 13 7 ESE 1012,2 10 0,0
14.07.2020 12:00:00 12,7 7,8 9 5 12 6 ESE 1012,4 10 0,5
14.07.2020 11:00:00 11,9 9,0 5 3 11 6 N 1012,5 10 2,1
14.07.2020 10:00:00 11,5 9,1 5 3 10 6 N 1012,4 10 0,4
14.07.2020 09:00:00 12,5 8,5 5 3 11 6 - 1012,2 10 0,0
14.07.2020 08:00:00 11,8 8,6 8 4 12 7 NE 1012,4 10 0,0
14.07.2020 07:00:00 11,0 9,1 2 1 9 5 - 1012,4 10 0,0
14.07.2020 06:00:00 10,2 9,3 0 0 5 3 N 1012,5 10 0,0
14.07.2020 05:00:00 9,8 9,0 0 0 6 3 N 1012,6 9 0,0
14.07.2020 04:00:00 9,5 8,7 0 0 6 4 N 1012,7 10 0,0
14.07.2020 03:00:00 9,6 8,7 8 4 8 5 W 1012,6 10 0,0
14.07.2020 02:00:00 9,6 8,7 8 4 8 5 W 1012,6 10 0,0
14.07.2020 01:00:00 9,7 8,8 5 3 9 5 WNW 1012,6 10 0,0
14.07.2020 00:00:00 9,9 8,5 8 4 10 6 WNW 1012,6 10 0,0
13.07.2020 23:00:00 10,5 8,7 8 4 11 6 WNW 1012,5 10 0,0
13.07.2020 22:00:00 10,8 8,7 9 5 14 8 NW 1012,4 10 0,0
13.07.2020 21:00:00 11,0 7,9 11 6 18 10 NW 1012,1 10 0,0
13.07.2020 20:00:00 11,9 8,4 11 6 23 13 NW 1011,8 10 0,0
13.07.2020 19:00:00 12,0 8,3 15 8 31 17 NW 1012,1 10 0,0
13.07.2020 18:00:00 12,7 7,6 16 9 29 16 NW 1012,1 10 0,0
13.07.2020 17:00:00 13,7 6,3 18 10 31 17 NW 1011,7 10 0,0
13.07.2020 16:00:00 12,8 6,6 18 10 30 16 NW 1012,1 10 0,0
13.07.2020 15:00:00 12,5 6,5 15 8 30 16 NNW 1012,5 10 0,0
13.07.2020 14:00:00 11,3 6,4 18 10 29 16 NW 1013,0 10 0,0
13.07.2020 13:00:00 10,5 7,0 15 8 29 15 NW 1013,4 10 0,0
13.07.2020 12:00:00 10,4 6,0 15 8 27 14 WNW 1013,3 10 0,0
13.07.2020 11:00:00 10,0 6,7 8 4 23 12 NNW 1013,7 10 0,0
13.07.2020 10:00:00 10,1 7,7 13 7 23 12 NW 1013,8 10 0,3
13.07.2020 09:00:00 8,8 6,4 13 7 24 13 NW 1014,2 10 0,3
13.07.2020 08:00:00 8,6 6,4 9 5 16 9 WNW 1014,2 10 0,0
13.07.2020 07:00:00 8,3 5,8 11 6 15 8 W 1014,0 10 0,0
13.07.2020 06:00:00 7,9 5,5 9 5 15 8 WNW 1014,1 10 0,0
13.07.2020 05:00:00 7,0 5,7 5 3 10 5 WSW 1014,4 10 0,0
13.07.2020 04:00:00 6,5 5,8 4 2 10 5 WSW 1014,5 10 0,0
13.07.2020 03:00:00 6,6 4,8 5 3 10 5 - 1014,6 10 0,0
13.07.2020 02:00:00 7,6 5,2 8 4 10 6 WNW 1014,4 10 0,0
13.07.2020 01:00:00 8,3 5,2 5 3 11 6 W 1014,3 10 0,0
13.07.2020 00:00:00 8,7 4,9 5 3 10 5 W 1014,3 10 0,0
12.07.2020 23:00:00 9,0 5,1 8 4 10 5 WSW 1014,3 10 0,0
12.07.2020 22:00:00 10,4 5,2 9 5 22 12 W 1014,2 10 0,0
12.07.2020 21:00:00 11,6 4,1 15 8 22 12 W 1013,8 10 0,0
12.07.2020 20:00:00 13,7 4,3 13 7 27 14 WNW 1013,1 10 0,0
12.07.2020 19:00:00 13,2 4,4 5 3 15 8 - 1013,0 10 0,0
12.07.2020 18:00:00 13,4 4,5 15 8 25 13 W 1012,9 10 0,0
12.07.2020 17:00:00 13,8 4,4 16 9 26 14 W 1012,7 10 0,0
12.07.2020 16:00:00 14,0 3,5 8 4 23 12 WNW 1012,7 10 0,0
12.07.2020 15:00:00 13,7 4,0 11 6 19 10 W 1013,0 10 0,0
12.07.2020 14:00:00 13,3 3,1 11 6 30 16 SW 1013,2 10 0,0
12.07.2020 13:00:00 12,5 3,4 13 7 19 10 WSW 1013,4 10 0,0
12.07.2020 12:00:00 11,8 2,3 13 7 22 12 W 1013,4 10 0,0
12.07.2020 11:00:00 12,2 2,5 15 8 23 12 W 1013,2 10 0,0
12.07.2020 10:00:00 11,1 3,6 11 6 25 14 WSW 1013,4 10 0,0
12.07.2020 09:00:00 10,7 3,0 16 9 25 14 W 1013,2 10 0,0
12.07.2020 08:00:00 10,0 2,6 13 7 19 10 W 1013,1 10 0,0
12.07.2020 07:00:00 8,9 3,5 13 7 18 10 W 1013,0 10 0,0
12.07.2020 06:00:00 7,6 3,8 4 2 7 4 SW 1013,1 10 0,0
12.07.2020 05:00:00 4,5 3,4 4 2 9 5 - 1013,6 10 0,0
12.07.2020 04:00:00 2,8 2,1 4 2 6 3 - 1013,5 10 0,0
12.07.2020 03:00:00 3,0 2,1 2 1 4 2 - 1013,4 10 0,0
12.07.2020 02:00:00 5,1 3,4 0 0 5 3 N 1012,9 10 0,0
12.07.2020 01:00:00 5,8 2,8 0 0 8 5 N 1012,6 10 0,0
12.07.2020 00:00:00 8,4 3,4 11 6 18 10 W 1011,8 10 0,0
11.07.2020 23:00:00 10,0 3,8 16 9 27 15 W 1011,0 10 0,0
11.07.2020 22:00:00 12,2 3,4 15 8 25 13 W 1010,1 10 0,0
11.07.2020 21:00:00 14,2 2,7 13 7 32 18 W 1009,2 10 0,0
11.07.2020 20:00:00 15,5 3,3 16 9 27 15 W 1008,3 10 0,0
11.07.2020 19:00:00 15,7 2,5 21 11 31 17 W 1007,9 10 0,0
11.07.2020 18:00:00 15,6 4,0 9 5 27 15 WNW 1007,6 10 0,0
11.07.2020 17:00:00 15,6 4,9 13 7 20 11 W 1007,6 10 0,0
11.07.2020 16:00:00 16,4 5,4 15 8 25 14 W 1007,2 10 0,0
11.07.2020 15:00:00 15,6 4,9 15 8 30 16 WNW 1007,1 10 0,0
11.07.2020 14:00:00 14,0 6,6 24 13 37 20 W 1007,7 10 0,0
11.07.2020 13:00:00 14,3 5,4 16 9 34 18 W 1007,1 10 0,0
11.07.2020 12:00:00 15,2 4,0 11 6 21 11 W 1006,8 10 0,0
11.07.2020 11:00:00 14,9 4,5 15 8 23 12 W 1007,0 10 0,0
11.07.2020 10:00:00 15,2 5,1 11 6 17 9 W 1006,9 10 0,0
11.07.2020 09:00:00 12,7 6,9 11 6 17 9 W 1007,3 10 0,0
11.07.2020 08:00:00 12,6 6,6 9 5 13 7 W 1007,2 10 0,0
11.07.2020 07:00:00 11,7 6,4 2 1 9 5 - 1007,4 10 0,0
11.07.2020 06:00:00 8,4 6,0 0 0 7 4 N 1008,2 10 0,0
11.07.2020 05:00:00 5,5 4,3 0 0 2 1 N 1008,6 10 0,0
11.07.2020 04:00:00 2,6 2,2 0 0 4 2 N 1009,2 10 0,0
11.07.2020 03:00:00 1,6 0,9 0 0 1 0 N 1009,2 10 0,0
11.07.2020 02:00:00 2,0 1,3 0 0 2 1 N 1009,3 10 0,0
11.07.2020 01:00:00 2,4 1,7 2 1 5 3 - 1009,0 10 0,0
11.07.2020 00:00:00 4,9 3,7 0 0 4 2 N 1008,4 10 0,0
10.07.2020 23:00:00 6,4 4,8 0 0 3 2 N 1008,1 10 0,0
10.07.2020 22:00:00 9,7 5,7 0 0 7 4 N 1007,3 10 0,0
10.07.2020 21:00:00 14,6 2,5 5 3 8 4 - 1006,4 10 0,0
10.07.2020 20:00:00 14,8 3,6 5 3 18 10 WNW 1006,3 10 0,0
10.07.2020 19:00:00 16,1 0,6 11 6 18 10 W 1006,2 10 0,0
10.07.2020 18:00:00 15,9 1,6 9 5 19 11 W 1006,1 10 0,0
10.07.2020 17:00:00 15,1 1,5 15 8 21 12 W 1006,2 10 0,0
10.07.2020 16:00:00 16,0 2,0 18 10 26 14 W 1006,1 10 0,0

tt = Température de l'air
td = dewpoint
ff = Vitesse du vent
fx = gusts
dd = Direction du vent
ppp = reduced air pressure
vv = visibility
rr = Quantités de précipitations

stations d'obs. à proximité